Location: Grisols
(45.0093°N, 3.1167°E)
Time: 12:38:34
(UTC+00:00)

ATLAS 3B R/B - Pass Details

Date: 21 October 2019
Orbit: 1028 x 1167 km, 63.8° (Epoch: 07 November)

Event Time Altitude Azimuth Distance (km) Brightness Sun altitude
Rises 18:23:27 0° 188° (S) 3,835 5.7 -16.6°
Reaches altitude 10° 18:26:17 10° 181° (S) 2,866 4.9 -17.1°
Maximum altitude 18:32:24 38° 115° (ESE) 1,527 3.1 -18.2°
Enters shadow 18:35:05 27° 71° (ENE) 1,857 3.4 -18.7°
